| time (UTC) | temp C | wind direction | speed KPH | gust KPH | rain 1hr cm | rain 24hr cm | rain mn cm | humidity % | barometer mb |
| 20260502210052 | 12 | 0 | 0.0 | 0.0 | 0.00 | 0.00 | 0.00 | 59 | 1013.3 |
| 20260502204550 | 12 | 0 | 0.0 | 0.0 | 0.00 | 0.00 | 0.00 | 59 | 1013.5 |
| 20260502203113 | 12 | 0 | 0.0 | 0.0 | 0.00 | 0.00 | 0.00 | 58 | 1013.5 |
| 20260502201554 | 12 | 0 | 0.0 | 3.2 | 0.00 | 0.00 | 0.00 | 58 | 1013.4 |
| 20260502200046 | 12 | 0 | 0.0 | 4.8 | 0.00 | 0.00 | 0.00 | 58 | 1013.4 |
| 20260502194556 | 12 | 0 | 0.0 | 3.2 | 0.00 | 0.00 | 0.00 | 58 | 1013.5 |
| 20260502193101 | 12 | 0 | 0.0 | 4.8 | 0.00 | 0.00 | 0.00 | 57 | 1013.4 |
| 20260502191556 | 13 | 0 | 0.0 | 3.2 | 0.00 | 0.00 | 0.00 | 57 | 1013.4 |
| 20260502190055 | 13 | 0 | 0.0 | 6.4 | 0.00 | 0.00 | 0.00 | 55 | 1013.4 |
| 20260502184556 | 14 | 79 | 1.6 | 11.3 | 0.00 | 0.00 | 0.00 | 53 | 1013.3 |
| 20260502183056 | 15 | 0 | 0.0 | 3.2 | 0.00 | 0.00 | 0.00 | 46 | 1013.2 |
| 20260502181552 | 16 | 0 | 1.6 | 6.4 | 0.00 | 0.00 | 0.00 | 45 | 1013.2 |
| 20260502163057 | 17 | 251 | 1.6 | 8.0 | 0.00 | 0.00 | 0.00 | 44 | 1013.6 |
| 20260502161551 | 17 | 195 | 3.2 | 9.7 | 0.00 | 0.00 | 0.00 | 43 | 1013.6 |
| 20260502151607 | 18 | 173 | 4.8 | 14.5 | 0.00 | 0.00 | 0.00 | 40 | 1014.3 |
| 20260502123043 | 18 | 255 | 3.2 | 11.3 | 0.00 | 0.00 | 0.00 | 42 | 1015.3 |
| 20260502121542 | 19 | 223 | 1.6 | 9.7 | 0.00 | 0.00 | 0.00 | 40 | 1015.4 |
| 20260502114546 | 18 | 249 | 3.2 | 17.7 | 0.00 | 0.00 | 0.00 | 44 | 1015.3 |
| 20260502113046 | 18 | 230 | 3.2 | 19.3 | 0.00 | 0.00 | 0.00 | 42 | 1015.5 |
| 20260502111545 | 16 | 244 | 1.6 | 14.5 | 0.00 | 0.00 | 0.00 | 47 | 1015.6 |
| 20260502110053 | 18 | 224 | 1.6 | 16.1 | 0.00 | 0.00 | 0.00 | 43 | 1015.5 |
| 20260502104602 | 16 | 0 | 1.6 | 14.5 | 0.00 | 0.00 | 0.00 | 47 | 1015.6 |
| 20260502103054 | 17 | 253 | 0.0 | 14.5 | 0.00 | 0.00 | 0.00 | 45 | 1015.5 |
| 20260502101602 | 17 | 221 | 3.2 | 11.3 | 0.00 | 0.00 | 0.00 | 46 | 1015.6 |
| 20260502070113 | 12 | 0 | 3.2 | 11.3 | 0.00 | 0.00 | 0.00 | 60 | 1015.9 |
| 20260502064550 | 11 | 267 | 3.2 | 11.3 | 0.00 | 0.00 | 0.00 | 63 | 1016.0 |
| 20260502063057 | 11 | 264 | 3.2 | 12.9 | 0.00 | 0.00 | 0.00 | 65 | 1016.3 |
| 20260502061549 | 10 | 0 | 1.6 | 6.4 | 0.00 | 0.00 | 0.00 | 65 | 1016.1 |
| 20260502060052 | 10 | 205 | 0.0 | 6.4 | 0.00 | 0.00 | 0.00 | 65 | 1016.1 |
| 20260502054605 | 10 | 237 | 1.6 | 9.7 | 0.00 | 0.00 | 0.00 | 65 | 1016.1 |
| 20260502053054 | 10 | 233 | 1.6 | 8.0 | 0.00 | 0.00 | 0.00 | 65 | 1016.2 |
| 20260502051554 | 9 | 182 | 3.2 | 6.4 | 0.00 | 0.00 | 0.00 | 65 | 1016.2 |
| 20260502050054 | 9 | 205 | 3.2 | 8.0 | 0.00 | 0.00 | 0.00 | 65 | 1016.3 |
| 20260502044550 | 9 | 213 | 1.6 | 6.4 | 0.00 | 0.00 | 0.00 | 65 | 1016.3 |
| 20260502043105 | 9 | 0 | 0.0 | 4.8 | 0.00 | 0.00 | 0.00 | 65 | 1016.2 |
| 20260502041610 | 9 | 197 | 0.0 | 3.2 | 0.00 | 0.00 | 0.00 | 64 | 1016.2 |
| 20260502040104 | 9 | 197 | 0.0 | 1.6 | 0.00 | 0.00 | 0.00 | 64 | 1016.2 |
| 20260502034546 | 9 | 0 | 0.0 | 1.6 | 0.00 | 0.00 | 0.00 | 64 | 1016.2 |
| 20260502033053 | 9 | 0 | 0.0 | 4.8 | 0.00 | 0.00 | 0.00 | 64 | 1016.3 |
| 20260502031549 | 9 | 0 | 0.0 | 4.8 | 0.00 | 0.00 | 0.00 | 64 | 1016.2 |
| 20260502030109 | 9 | 258 | 3.2 | 9.7 | 0.00 | 0.00 | 0.00 | 64 | 1016.2 |
| 20260502024602 | 10 | 0 | 1.6 | 9.7 | 0.00 | 0.00 | 0.00 | 64 | 1016.3 |
| 20260502023124 | 10 | 178 | 0.0 | 9.7 | 0.00 | 0.00 | 0.00 | 64 | 1016.6 |
| 20260502021550 | 10 | 191 | 1.6 | 9.7 | 0.00 | 0.00 | 0.00 | 63 | 1016.8 |
| 20260502020046 | 10 | 223 | 3.2 | 9.7 | 0.00 | 0.00 | 0.00 | 63 | 1016.8 |
| 20260502014551 | 10 | 199 | 3.2 | 11.3 | 0.00 | 0.00 | 0.00 | 63 | 1016.8 |
| 20260502013053 | 11 | 234 | 3.2 | 8.0 | 0.00 | 0.00 | 0.00 | 63 | 1017.0 |
| 20260502011602 | 11 | 0 | 0.0 | 4.8 | 0.00 | 0.00 | 0.00 | 63 | 1017.1 |
| 20260502010052 | 11 | 184 | 3.2 | 16.1 | 0.00 | 0.00 | 0.00 | 63 | 1017.2 |
| 20260502004548 | 11 | 212 | 3.2 | 12.9 | 0.00 | 0.00 | 0.00 | 63 | 1017.4 |
| 20260502003046 | 11 | 206 | 3.2 | 16.1 | 0.00 | 0.00 | 0.00 | 63 | 1017.3 |
| 20260502001557 | 11 | 205 | 1.6 | 8.0 | 0.00 | 0.00 | 0.00 | 64 | 1017.5 |
| 20260502000058 | 11 | 0 | 0.0 | 1.6 | 0.00 | 0.00 | 0.00 | 64 | 1017.6 |
| 20260501234553 | 11 | 207 | 3.2 | 8.0 | 0.00 | 0.00 | 0.00 | 63 | 1017.6 |
| 20260501233104 | 12 | 0 | 1.6 | 4.8 | 0.00 | 0.00 | 0.00 | 62 | 1017.6 |
| 20260501231605 | 12 | 228 | 1.6 | 11.3 | 0.00 | 0.00 | 0.00 | 62 | 1017.6 |
| 20260501230113 | 12 | 243 | 0.0 | 4.8 | 0.00 | 0.00 | 0.00 | 62 | 1017.7 |
| 20260501224556 | 13 | 245 | 0.0 | 3.2 | 0.00 | 0.00 | 0.00 | 59 | 1017.7 |
| 20260501223055 | 13 | 217 | 1.6 | 6.4 | 0.00 | 0.00 | 0.00 | 59 | 1017.7 |
| 20260501221542 | 13 | 225 | 3.2 | 9.7 | 0.00 | 0.00 | 0.00 | 59 | 1017.6 |
| 20260501220105 | 13 | 207 | 3.2 | 11.3 | 0.00 | 0.00 | 0.00 | 59 | 1017.7 |
| 20260501214547 | 13 | 215 | 1.6 | 8.0 | 0.00 | 0.00 | 0.00 | 57 | 1017.7 |
| 20260501213047 | 13 | 228 | 1.6 | 8.0 | 0.00 | 0.00 | 0.00 | 57 | 1017.7 |
| 20260501211544 | 14 | 196 | 3.2 | 6.4 | 0.00 | 0.00 | 0.00 | 56 | 1017.8 |